Regional Weather Roundup
Issued by NWS

Home | Current Version | Previous Version | Graphics & Text | Print | Product List | Glossary On
Versions: 1 2 3 4 5 6 7 8 9 10 11 12 13 14 15 16 17 18 19 20 21 22 23 24 25 26 27 28 29 30 31 32 33 34 35 36 37 38 39 40 41 42 43 44 45 46 47 48 49 50
000
ASUS43 KLOT 020610
RWRIL

ILLINOIS REGIONAL WEATHER ROUNDUP
NATIONAL WEATHER SERVICE CHICAGO/ROMEOVILLE IL
1200 AM CST MON MAR 02 2015

NOTE: "FAIR" INDICATES FEW OR NO CLOUDS BELOW 12,000 FEET WITH NO
SIGNIFICANT WEATHER AND/OR OBSTRUCTIONS TO VISIBILITY.

* THESE STATIONS ARE NOT UNDER NWS QUALITY CONTROL. THEY ALSO MAY NOT
  REPORT WEATHER SUCH AS PRECIPITATION OR FOG.

ILZ001-002-007-009-015-016-024-020700-
NORTHWEST ILLINOIS

CITY           SKY/WX    TMP DP  RH WIND       PRES   REMARKS
MOLINE         PTCLDY     9   4  80 SW3       30.44R
6HR MIN TEMP:   9; 6HR MAX TEMP:  26;

STERLING*      PTCLDY    12   9  85 W8        30.42R WCI   1
SAVANNA*       PTCLDY    12   6  77 CALM      30.42R
$$

ILZ003-004-008-010-011-017-018-020700-
NORTH CENTRAL ILLINOIS

CITY           SKY/WX    TMP DP  RH WIND       PRES   REMARKS
ROCKFORD       CLEAR     15   7  70 W8        30.39R WCI   4
6HR MIN TEMP:  15; 6HR MAX TEMP:  23;

FREEPORT*      CLEAR     15   8  74 W6        30.39R WCI   6
ROCHELLE*      CLEAR      8   4  83 W8        30.40R WCI  -4
DE KALB*       CLEAR     14   7  73 W10       30.37S WCI   1
PERU*          PTCLDY    18  11  76 W10       30.41S WCI   6
$$

ILZ005-006-012>014-019>023-020700-
NORTHEAST ILLINOIS

CITY           SKY/WX    TMP DP  RH WIND       PRES   REMARKS
CHICAGO-OHARE  PTCLDY    19   8  62 W13       30.36R WCI   6
6HR MIN TEMP:  18; 6HR MAX TEMP:  21;

CHICAGO-MIDWAY CLEAR     20  11  68 W10       30.37R WCI   9
6HR MIN TEMP:  20; 6HR MAX TEMP:  25;

AURORA         CLEAR     11   4  73 W10       30.39R WCI  -3
6HR MIN TEMP:  10; 6HR MAX TEMP:  20;

LANSING*       CLEAR     18  12  77 W8        30.38R WCI   8
JOLIET*        CLEAR     13   8  79 W3        30.41R
WAUKEGAN       CLEAR     17   7  64 W6        30.33R WCI   9
6HR MIN TEMP:  17; 6HR MAX TEMP:  22;

DUPAGE AIRPORT CLEAR     17   8  67 W12       30.37R WCI   4
6HR MIN TEMP:  17; 6HR MAX TEMP:  21;

KANKAKEE*      PTCLDY    10   6  87 W10       30.40S WCI  -4
WHEELING       CLEAR     19   7  59 W12       30.37R WCI   7
6HR MIN TEMP:  19; 6HR MAX TEMP:  23;

MORRIS*        CLEAR     11   7  85 W10       30.40R WCI  -3
ROMEOVILLE*    CLEAR     13   8  80 W8        30.39R WCI   1
NORTHERLY ISL    N/A     21  11  65 W8          N/A  WCI  12
$$

LMZ740>746-020700-
SOUTHERN LAKE MICHIGAN

STATION/POSITION SKY/WX   TEMP    WIND        PRES    VSBY  WAVE
                          AIR SEA DIR/SP/G                  HT/PER
                          (F)     (DEG/KT/KT) (MB)    (MI)  (FT/S)
WAUKEGAN HARBOR            20     270/  9/ 12   N/A
HARRISON CRIB              22     290/ 15/ 19   N/A
BURNHAM HARBOR             21     270/ 10/ 16   N/A
CALUMET HARBOR             20     270/  4/  7 1027.1R
MICHIGAN CITY              20     250/ 15/ 17   N/A
$$

ILZ025>027-034>036-040-047-049-050-058-095>099-020700-
WEST-CENTRAL ILLINOIS

CITY           SKY/WX    TMP DP  RH WIND       PRES   REMARKS
QUINCY         MOCLDY    23  17  78 W5        30.47S WCI  17
GALESBURG*     MOCLDY     9   8  92 CALM      30.44R
MACOMB*        MOCLDY    17  14  88 W6        30.48S WCI   9
JACKSONVILLE*  MOCLDY    20  15  82 W3        30.48S
PITTSFIELD*    MOCLDY    18  15  87 W5        30.49S WCI  11
$$

ILZ028>032-037-038-041>044-048-051>054-059>061-020700-
CENTRAL ILLINOIS

CITY           SKY/WX    TMP DP  RH WIND       PRES   REMARKS
PONTIAC        PTCLDY    15  11  87 W8        30.43S WCI   3
BLOOMINGTON    MOCLDY    18  14  84 W9        30.43S WCI   7
DECATUR        CLOUDY    23  17  78 W8        30.45R WCI  14
PEORIA         MOCLDY    20  13  74 W3        30.45S
6HR MIN TEMP:  20; 6HR MAX TEMP:  25;

LACON*         MOCLDY    17  12  81 W6        30.44S WCI   8
LINCOLN*       CLOUDY    23  18  80 W6        30.48S WCI  15
SPRINGFIELD    CLOUDY    15  12  88 W7        30.47S WCI   5
6HR MIN TEMP:  15; 6HR MAX TEMP:  26;

TAYLORVILLE    MOCLDY    18  14  86 W5        30.47S WCI  11
$$

ILZ033-039-045-046-055>057-062-063-020700-
EAST-CENTRAL ILLINOIS

CITY           SKY/WX    TMP DP  RH WIND       PRES   REMARKS
CHAMPAIGN      MOCLDY    12   9  87 W6        30.43R WCI   3
DANVILLE*      PTCLDY    19  16  86 W10       30.39R WCI   8
RANTOUL*       MOCLDY    18  13  83 W9        30.42R WCI   6
MATTOON        MOCLDY    19  14  81 NW8       30.44R WCI   9
PARIS*         PTCLDY    19  16  90 W6        30.45R WCI  10
$$

ILZ079-100>102-020700-
SOUTHWEST ILLINOIS

CITY           SKY/WX    TMP DP  RH WIND       PRES   REMARKS
ALTON          PTCLDY    19  18  96 CALM      30.49S FOG
BELLEVILLE     PTCLDY    18  16  93 NW2       30.49R
CAHOKIA*       FOG       16  15  96 CALM      30.50S VSB 1/4
SPARTA*        PTCLDY    24  21  87 NW3       30.50S
$$

ILZ064>066-069>071-074>076-080>082-084>086-088>090-092>094-020700-
SOUTH-CENTRAL ILLINOIS

CITY           SKY/WX    TMP DP  RH WIND       PRES   REMARKS
CARBONDALE     PTCLDY    28  24  85 N9        30.48S WCI  19
6HR MIN TEMP:  28; 6HR MAX TEMP:  33;

CAIRO*         CLEAR     34  27  75 N7        30.46R WCI  28
EFFINGHAM*     MOCLDY    20  16  83 CALM      30.48S
MARION         CLEAR     30  25  80 N5        30.48S WCI  25
MT. VERNON     PTCLDY    18  14  86 CALM      30.47S
CENTRALIA*     FOG       14  12  90 CALM      30.48R VSB<1/4
SALEM*         FOG       20  18  92 CALM      30.48S VSB 1/4
METROPOLIS*    MOCLDY    32  27  82 N7        30.44S WCI  26
$$

ILZ067-068-072-073-078-083-087-091-020700-
SOUTHEAST ILLINOIS

CITY           SKY/WX    TMP DP  RH WIND       PRES   REMARKS
LAWRENCEVILLE  PTCLDY    22  19  89 NW5       30.47R WCI  16
FLORA*         PTCLDY    22  19  89 NW6       30.48S WCI  14
FAIRFIELD*     MOCLDY    24  21  86 CALM      30.47R
HARRISBURG*    CLEAR     29  26  88 N9        30.48R WCI  20
ROBINSON*      MOCLDY    21  18  90 NW6       30.47S WCI  13
CARMI*         PTCLDY    29  25  87 NW6       30.47S WCI  23
$$

ABBREVIATIONS USED IN REMARKS
   TC - TEMPERATURE IN CELSIUS
  WCI - WIND CHILL INDEX
   HX - HEAT INDEX
  VSB - VISIBILITY
$$




USA.gov is the U.S. government's official web portal to all federal, state and local government web resources and services.